Regional Weather Roundup
Issued by NWS

Home | Current Version | Previous Version | Graphics & Text | Print | Product List | Glossary On
Versions: 1 2 3 4 5 6 7 8 9 10 11 12 13 14 15 16 17 18 19 20 21 22 23 24 25 26 27 28 29 30 31 32 33 34 35 36 37 38 39 40 41 42 43 44 45 46 47 48 49 50
222
ASUS45 KCYS 110810
RWRWY

WYOMING REGIONAL WEATHER ROUNDUP
NATIONAL WEATHER SERVICE CHEYENNE WY
100 AM MST THU FEB 11 2016

NOTE:  "FAIR" INDICATES FEW OR NO CLOUDS BELOW 12,000 FEET
WITH NO SIGNIFICANT WEATHER AND/OR OBSTRUCTIONS TO VISIBILITY.

WYZ001-110900-
YELLOWSTONE NATIONAL PARK

CITY           SKY/WX    TMP DP  RH WIND       PRES   REMARKS
LK YELLOWSTONE   N/A     22  18  85 CALM      30.34R
W YELLOWSTONE  NOT AVBL

$$
WYZ002>013-054>058-071-098>099-110900-
NORTHERN WYOMING

CITY           SKY/WX    TMP DP  RH WIND       PRES   REMARKS
JACKSON        FAIR       9   7  92 N7        30.36S WCI  -3
CODY           FAIR      54  16  22 N12G23    30.10F
GREYBULL       FAIR      30  26  85 NE5       30.11F WCI  25
WORLAND        FAIR      29  25  85 S6        30.12F WCI  23
SHERIDAN       FAIR      37  25  61 S6        30.03F WCI  32
BUFFALO        FAIR      40  22  48 W5        30.05F
GILLETTE       FAIR      41  25  53 W15       30.03F
HULETT         FAIR      36  27  69 SW7       30.04F WCI  30
NEWCASTLE      FAIR      30  23  74 N5        30.08F WCI  25

$$
WYZ014>020-022>026-101>103-110900-
CENTRAL WYOMING

CITY           SKY/WX    TMP DP  RH WIND       PRES   REMARKS
BIG PINEY      FAIR      16  12  84 CALM      30.33S
PINEDALE         N/A     18  14  86 CALM      30.35S
DUBOIS         FAIR      34  12  40 NW23      30.21S WCI  22
LANDER         FAIR      34  17  50 W5        30.16F WCI  30
RIVERTON       FAIR      31  19  61 S5        30.17F WCI  26
CASPER         FAIR      36  20  52 SW18      30.15F WCI  26
DOUGLAS        FAIR      27  22  81 S3          N/A

$$
WYZ021-027>030-104>119-110900-
SOUTHERN WYOMING

CITY           SKY/WX    TMP DP  RH WIND       PRES   REMARKS
EVANSTON       FAIR      26  13  57 SW12      30.38F WCI  16
FORT BRIDGER   SUNNY     36  16  44 W24       30.38S WCI  24
ROCK SPRINGS   FAIR      32  17  54 W18       30.32S WCI  20
DIXON          FAIR      17   9  71 CALM      30.39S
RAWLINS        FAIR      32  17  54 W22G30    30.26S WCI  19
SARATOGA       FAIR      30  14  51 SE13      30.30F WCI  20
LARAMIE        FAIR      29  16  58 SW10      30.23F WCI  20
CHEYENNE       FAIR      40  15  36 W14       30.17F WCI  32
TORRINGTON     FAIR      35  23  61 W7        30.12F WCI  29
PINE BLUFFS    FAIR      30  23  74 W8        30.17F WCI  23

$$




USA.gov is the U.S. government's official web portal to all federal, state and local government web resources and services.